Location: LDNL
(36.4545°S, 141.6685°E)
Time: 20:15:25
(UTC+10:00)

XW-2D - Visible Passes

Search period start: 22 May 2022 00:00
Search period end: 01 June 2022 00:00
Orbit: 497 x 518 km, 97.5° (Epoch: 21 May)

Date Brightness Start Highest point End Pass type
(mag) Time Alt. Az. Time Alt. Az. Time Alt. Az.
22 May ? 06:09:22 10° N 06:13:02 50° W 06:16:14 13° SSW visible
22 May ? 19:16:20 10° SSW 19:19:33 26° WSW 19:22:43 10° NW visible
23 May ? 05:51:58 10° NNE 05:55:43 88° WNW 05:58:38 17° SSW visible
23 May ? 18:58:41 10° S 19:02:20 43° WSW 19:05:55 10° NW visible
24 May ? 05:34:45 10° NNE 05:38:26 52° ESE 05:41:00 19° S visible
24 May ? 18:41:13 10° S 18:45:03 76° WSW 18:48:48 10° NNW visible
25 May ? 05:17:49 10° NE 05:21:10 31° ESE 05:23:22 18° SSE visible
25 May ? 06:52:56 10° NW 06:55:07 15° W 06:57:19 10° WSW visible
25 May ? 18:23:55 10° SSE 18:27:42 61° E 18:31:25 10° N visible
26 May ? 05:01:11 10° ENE 05:03:56 19° ESE 05:05:43 15° SE visible
26 May ? 06:34:32 10° NNW 06:37:38 24° W 06:40:32 11° SW visible
26 May ? 18:06:46 10° SSE 18:10:18 35° E 18:13:45 10° NNE visible
26 May ? 19:41:53 10° SW 19:43:49 14° WSW 19:45:43 10° W visible
27 May ? 04:45:10 10° E 04:46:44 12° ESE 04:48:03 11° SE visible
27 May ? 06:16:37 10° N 06:20:11 40° W 06:22:52 16° SW visible
27 May ? 19:23:38 10° SSW 19:26:35 21° WSW 19:29:29 10° WNW visible
28 May ? 05:59:00 10° N 06:02:46 71° WNW 06:05:12 21° SSW visible
28 May ? 19:05:48 10° S 19:09:17 35° WSW 19:12:42 10° NW visible
29 May ? 05:41:37 10° NNE 05:45:22 66° ESE 05:47:30 25° S visible
29 May ? 18:48:10 10° S 18:51:56 60° WSW 18:55:37 10° NNW visible
30 May ? 05:24:29 10° NE 05:28:00 38° ESE 05:29:47 23° SSE visible
30 May ? 07:00:29 10° WNW 07:02:01 12° W 07:03:34 10° WSW visible
30 May ? 18:30:42 10° SSE 18:34:30 77° ENE 18:38:14 10° N visible
31 May ? 05:07:37 10° NE 05:10:39 23° ESE 05:12:04 19° SE visible
31 May ? 06:41:36 10° NW 06:44:26 20° W 06:46:53 12° SW visible
31 May ? 18:13:23 10° SSE 18:17:01 43° E 18:20:34 10° N visible
31 May ? 19:49:16 10° SW 19:50:26 11° WSW 19:51:37 10° W visible
